Location: Bernay
(48.6766°N, 2.9386°E)
Time: 00:16:39
(UTC+00:00)

SJ 16-02 - Pass Details

Date: 22 April 2026
Orbit: 582 x 592 km, 75.0° (Epoch: 19 May)

Event Time Altitude Azimuth Distance (km) Brightness Sun altitude
Rises 23:12:49 0° 325° (NW) 2,821 5.7 -28.4°
Reaches altitude 10° 23:15:34 10° 307° (NW) 1,913 4.4 -28.5°
Enters shadow 23:17:19 17° 284° (WNW) 1,525 3.6 -28.5°
